www.pogodaiklimat.ru

Погода и климат >> Архив погоды >> Казахстан >> Караганда


АРХИВ ПОГОДЫ в Караганде

Время (UTC), дата Ветер
(напр.,м/с)
 
Видим.   Явления Облачность Т
(С)
Тd
(С)
f
(%)
Тe
(С)
Тes
(С)
Комфортность P
(гПа)
Po
(гПа)
Тmin
(С)
Tmax
(С)
R
(мм)
R24
(мм)
S
(см)
18 11.06 ЮВ 2 20 км ясно +15.9 +8.4 61 +16 +16 по сезону 1005.0 942.2 +24.8
21 11.06 ЮВ 2 20 км ясно +16.0 +7.4 57 +16 +16 тепло 1004.3 941.6
00 12.06 Ю 2 20 км ясно +14.5 +8.1 65 +14 +15 тепло 1005.1 942.0
03 12.06 ЮЗ 2 20 км ясно +20.5 +10.3 52 +23 +30 комфорт 1004.2 942.4
06 12.06 ЮЗ 3 20 км 3/3 1000 м
[Cu hum]
+24.4 +6.8 32 +24 +34 комфорт 1003.1 942.1 +13.4
09 12.06 Ю 3 20 км 8/5 1000 м
[Cu med, cong Ac lent Ci fib]
+26.6 +4.4 24 +26 +30 жарко 1001.4 940.9
12 12.06 ЮЗ 4 20 км 9/8 600 м
[Cb cap Ac lent]
+23.9 +4.5 28 +24 +24 комфорт 1003.1 942.0
15 12.06 С 2 20 км в посл. час ливневой дождь {гроза} 8/6 600 м
[Cb cap Ac trans]
+16.7 +10.7 68 +17 +17 прохладно 1005.7 943.1 +27.6
18 12.06 С 3 20 км {гроза, ливн. осадки} ясно +13.8 +6.8 63 +13 +13 прохладно 1008.2 944.7 +27.6 0.3
21 12.06 СЗ 2 20 км 8/0
[Ac trans Ci fib]
+10.7 +6.4 75 +9 +9 прохладно 1009.3 945.1
00 13.06 С 1 20 км 6/1 1000 м
[Sc Ac cast Ci fib]
+10.0 +6.0 76 +10 +10 по сезону 1009.6 945.2
03 13.06 С 3 20 км 6/0
[Ac cast]
+16.1 +5.6 50 +16 +19 по сезону 1008.6 945.6
06 13.06 СЗ 3 20 км 8/3 1000 м
[Cu hum Ci sp]
+19.0 +2.2 33 +19 +28 прохладно 1007.7 945.3 +8.9
09 13.06 З 3 20 км 8/6 1000 м
[Cu med, cong Ci sp]
+21.1 -0.4 24 +21 +25 комфорт 1006.8 944.9
12 13.06 З 5 20 км 8/5 600 м
[Cb cap Ac cast Ci sp]
+18.8 +1.9 32 +19 +20 холодно 1007.7 945.3
15 13.06 СЗ 4 20 км {ливн. осадки} 8/8 1000 м
[Cb cap]
+16.5 +2.8 40 +16 +16 прохладно 1009.5 946.4 +21.6
18 13.06 С 2 20 км {ливн. осадки} 3/0
[Ac trans]
+10.8 +4.5 65 +10 +10 холодно 1012.2 947.8 +21.6 0.0
21 13.06 СЗ 1 20 км ясно +8.3 +2.8 68 +8 +8 холодно 1013.6 948.6
00 14.06 штиль 0 20 км ясно +5.8 +2.7 80 +5 +5 холодно 1015.3 949.6
03 14.06 З 3 20 км ясно +13.8 +2.6 47 +13 +19 прохладно 1014.4 950.5
06 14.06 СЗ 3 20 км 4/4 1000 м
[Cu hum]
+17.2 +0.7 33 +17 +26 холодно 1014.5 951.3 +4.2
09 14.06 СЗ 3 20 км 3/3 1000 м
[Cu hum]
+19.6 +1.3 29 +20 +29 прохладно 1013.6 951.0
12 14.06 СЗ 3 20 км 3/1 1000 м
[Cu hum Ci fib]
+20.8 +2.1 29 +21 +25 комфорт 1012.9 950.5
15 14.06 СЗ 3 20 км 3/0
[Ci fib]
+18.9 +5.0 40 +19 +19 по сезону 1013.7 950.9 +21.2
18 14.06 штиль 0 20 км ясно +11.8 +6.4 69 +11 +11 холодно 1015.4 951.1 +21.2
21 14.06 штиль 0 20 км ясно +9.6 +5.1 74 +9 +9 холодно 1015.2 950.4
00 15.06 ЮВ 1 20 км 3/0
[Ci fib]
+10.1 +3.9 65 +10 +10 по сезону 1014.8 950.1
03 15.06 З 2 20 км 4/0
[Ac trans Ci sp]
+18.1 +4.4 40 +19 +25 тепло 1012.9 950.0
06 15.06 З 3 20 км 8/1 1000 м
[Cu med, cong Ac trans Ci sp]
+22.0 +4.2 31 +22 +30 комфорт 1011.3 949.3 +8.9
09 15.06 ЮЗ 3 20 км 8/4 1000 м
[Cu med, cong Ac lent Ci sp]
+24.3 +4.2 27 +24 +29 комфорт 1010.2 948.8
12 15.06 ЮЗ 2 20 км 8/3 1000 м
[Sc diur, vesp Ac trans Ci fib]
+24.6 +3.8 26 +24 +26 комфорт 1009.5 948.2
15 15.06 ЮЗ 2 20 км 6/3 1000 м
[Sc diur, vesp Ci fib]
+22.1 +4.4 31 +22 +22 комфорт 1010.2 948.3 +25.0
18 15.06 Ю 2 20 км 6/0
[Ci fib]
+18.4 +4.6 40 +19 +19 тепло 1010.8 948.1 +25.0
21 15.06 ЮЗ 2 20 км 4/0
[Ac trans]
+15.9 +5.5 50 +16 +16 тепло 1011.1 947.9
00 16.06 Ю 1 20 км 8/3 1000 м
[Sc diur, vesp Ac trans]
+14.2 +5.6 56 +15 +15 тепло 1011.8 948.2
03 16.06 Ю 2 20 км 5/3 1000 м
[Sc Ac lent]
+19.8 +7.9 46 +21 +25 комфорт 1010.8 948.5
06 16.06 ЮЗ 4 20 км 8/4 1000 м
[Cu hum Ac trans]
+24.2 +8.3 36 +25 +29 комфорт 1009.0 947.7 +13.9
09 16.06 З 2 20 км в посл. час гроза {ливн. осадки} 8/6 600 м
[Cb cap Ac trans]
+25.6 +11.7 42 +27 +31 жарко 1007.2 946.3
12 16.06 Ю 2 20 км {гроза, ливн. осадки} 8/6 600 м
[Cb cap Ac trans]
+25.3 +8.5 34 +26 +27 жарко 1006.3 945.3
15 16.06 Ю 3 20 км 8/0
[Ac trans]
+25.2 +4.9 27 +25 +25 комфорт 1005.1 944.2 +27.0
18 16.06 штиль 0 20 км ясно +18.6 +6.7 46 +19 +19 тепло 1006.8 944.5 +27.0 1
21 16.06 С 2 20 км 6/0
[Ac trans]
+13.6 +6.8 63 +13 +13 по сезону 1006.8 943.4
00 17.06 Ю 1 20 км 1/0
[Ac trans]
+13.1 +5.2 59 +13 +14 по сезону 1005.6 942.2
03 17.06 Ю 4 20 км 3/0
[Ac trans]
+21.8 +4.6 32 +22 +26 комфорт 1002.9 941.4
06 17.06 ЮЗ 5 20 км 8/0
[Ac trans]
+26.6 +5.7 26 +26 +30 жарко 1001.2 940.7 +12.3
09 17.06 ЮЗ 6 20 км 8/4 1000 м
[Cu hum Ci fib]
+29.2 +2.6 18 +27 +30 жарко 999.3 939.4
12 17.06 С 7 20 км 6/3 1000 м
[Cu hum Ci fib]
+26.3 +9.3 34 +27 +28 жарко 999.8 939.4
15 17.06 СЗ 5 20 км 9/9 600 м
[Cb cap]
+21.0 +8.9 46 +23 +23 комфорт 1001.0 939.5 +29.6
18 17.06 СВ 4 10 км слабый ливневой дождь 10/10 600 м
[Cb cap]
+18.2 +8.6 53 +18 +18 тепло 1002.0 939.9 +29.6
21 17.06 СВ 4 20 км в посл. час гроза {ливн. осадки} 8/8 600 м
[Cb cap]
+14.5 +11.4 82 +13 +13 по сезону 1002.0 939.2
00 18.06 В 3 20 км в посл. час ливневой дождь {гроза} 10/10 600 м
[Cb cap]
+14.5 +12.2 86 +14 +14 по сезону 1001.7 938.9
03 18.06 ЮВ 6 20 км в посл. час ливневой дождь 9/9 600 м
[Cb cap]
+15.1 +11.7 80 +13 +14 холодно 1001.4 938.8
06 18.06 В 6 20 км {ливн. осадки} 3/3 1000 м
[Cu hum Ci sp]
+21.5 +11.6 53 +24 +28 комфорт 998.6 937.4 +14.0 4
09 18.06 ЮЗ 5 10 км гроза, ливневой дождь 10/10 600 м
[Cb cap]
+19.7 +8.8 49 +21 +21 комфорт 1001.3 939.5
12 18.06 ЮВ 4 10 км гроза, ливневой дождь 8/8 600 м
[Cb cap]
+19.3 +8.7 50 +20 +21 холодно 997.7 936.1
15 18.06 В 4 20 км {гроза, ливн. осадки} 8/8 600 м
[Cb cap Ac lent]
+19.0 +10.6 58 +20 +20 по сезону 993.9 932.5 +23.7

 

Местоположение метеостанции Караганда (Карагандинская область, Казахстан): широта 49.80 долгота 73.15 высота над уровнем моря 553 м.

В архиве по умолчанию представлена погода в Караганде за последнюю неделю. Архивные данные за месяц целиком и за предыдущие месяцы, начиная с января 2011 года, Вы можете получить, выбрав интересующий диапазон дат из раскрывающегося списка и нажав кнопку "Ввод!".


*Определитесь, кто Вы:
робот инопланетянин человек

Внимание! Время в таблицах - всемирное. Для получения местного времени необходимо прибавить поправку, которая в Караганде равна 6 ч.

Смотрите также архив погоды в соседних городах и на ближайших метеорологических станциях:

Погода в Караганде-ШОС (Карагандинская область, Казахстан) (4 км)
Погода в Корнеевке (Карагандинская область, Казахстан) (11 км)
Погода в Темиртау (Карагандинская область, Казахстан) (33 км)
Погода в Топаре (Карагандинская область, Казахстан) (40 км)
Погода в Осакаровке (Карагандинская область, Казахстан) (94 км)
Погода в Молодежном (Карагандинская область, Казахстан) (107 км)
Погода в Бесобе (Карагандинская область, Казахстан) (108 км)
Погода в Жарыке (Карагандинская область, Казахстан) (108 км)
Погода в Кертинди (Карагандинская область, Казахстан) (114 км)
Погода в Киевке (Карагандинская область, Казахстан) (123 км)

Пояснения к столбцам:

Ветер - указаны скорость ветра в м/с - средняя за 10 мин, порывы в срок и между сроками (в фигурных скобках) и направление, откуда дует ветер: С - северный, СВ - северо-восточный, В - восточный, ЮВ - юго-восточный, Ю - южный, ЮЗ - юго-западный, З - западный, СЗ - северо-западный.
Видимость - горизонтальная дальность видимости в метрах или километрах. При видимости от 1 до 10 км при отсутствии осадков обычно наблюдается дымка, при ухудшении видимости до 1 км и менее - туман. В сухую погоду видимость может ухудшаться дымом, пылью или мглою.
Явления - указаны атмосферные явления, наблюдавшиеся в срок или в последний час перед сроком; фигурными скобками обозначены явления, наблюдавшиеся между сроками (за 1-3 часа до срока); квадратными скобками обозначены град или гололедные отложения с указанием их диаметра в мм.
Облачность - указаны через наклонную черту общая и нижняя облачность в баллах и высота нижней границы облаков в метрах; квадратными скобками обозначены формы облаков: Ci - перистые, Cs - перисто-слоистые, Cc - перисто-кучевые, Ac - высококучевые, As - высокослоистые, Sc - слоисто-кучевые, Ns - слоисто-дождевые, Cu - кучевые, Cb - кучево-дождевые. Подробнее классификацию облаков см. в Атласе облаков (PDF).
T - Температура воздуха - температура, измеренная на высоте 2 м над землей.
Td - Температура точки росы - температура, при понижении до которой содержащийся в воздухе водяной пар достигнет насыщения.
f - Относительная влажность воздуха - влажноcть воздуха, измеренная на высоте 2 м над землей.
Te - Эффективная температура - температура, которую ощущает одетый по сезону человек в тени. Характеристика душности погоды. При расчете учитывается влияние влажности воздуха и скорости ветра на теплоощущения человека.
Tes - Эффективная температура на солнце - температура, которую ощущает человек, с поправкой на солнечный нагрев. Характеристика знойности погоды. Зависит от высоты солнца над горизонтом, облачности и скорости ветра. Ночью, в пасмурную погоду, а также при ветре 12 м/с и более поправка равна нулю.
P - Атмосферное давление - приведенное к уровню моря атмосферное давление.
Po - Атмосферное давление - измеренное на уровне метеостанции атмосферное давление.
Tmin - Минимальная температура - минимум температуры воздуха на высоте 2 м над землей.
Tmax - Максимальная температура - максимум температуры воздуха на высоте 2 м над землей.
R - Количество осадков - Количество выпавших осадков за период времени, мм. При наведении курсора мыши на число - период времени, за который выпало указанное количество осадков.
R24 - Количество осадков - Количество выпавших осадков за 24 часа, мм.
S - Снежный покров - Высота снежного покрова, см. При наведении курсора мыши на число - состояние снежного покрова и степень покрытия местности в баллах.